Terug naar catalogus

STARLINK-37345

ActiefCommunicatieVLEO
NORAD 69156·PAYLOAD·🇺🇸 United States

Gelanceerd May 21, 2026 vanaf Cape Canaveral Space Force Station

Loading…

Volgende Passages (komende 24 uur)

TLE

VersSource: CelesTrak SupGP

Epoch: Sep 14, 2026, 22:53 UTC

1 69156C 26111J   26257.95395833  .00044298  00000+0  13089-2 0  2571
2 69156  53.1584  91.8039 0001186  77.6653 332.7279 15.34366506    18

Volg STARLINK-37345 in realtime met AllMySat

Download on the App Store